Weather reports worldwide

Advertisment
Aurillac, France (7549): temperature & dewpoint: 06.12.2018 00:00:00 - 12.12.2018 00:00:00 (CET)Aurillac, France (7549): temperature 5cm: 06.12.2018 00:00:00 - 12.12.2018 00:00:00 (CET)Aurillac, France (7549): temperature -20cm & temperature -100cm: 06.12.2018 00:00:00 - 12.12.2018 00:00:00 (CET)Aurillac, France (7549): wind speed & gusts: 06.12.2018 00:00:00 - 12.12.2018 00:00:00 (CET)Aurillac, France (7549): wind direction: 06.12.2018 00:00:00 - 12.12.2018 00:00:00 (CET)Aurillac, France (7549): reduced air pressure: 06.12.2018 00:00:00 - 12.12.2018 00:00:00 (CET)Aurillac, France (7549): visibility: 06.12.2018 00:00:00 - 12.12.2018 00:00:00 (CET)Aurillac, France (7549): sunshine duration: 06.12.2018 00:00:00 - 12.12.2018 00:00:00 (CET)Aurillac, France (7549): precipitation: 06.12.2018 00:00:00 - 12.12.2018 00:00:00 (CET)
Date & Time tt [°C] td [°C] tt 5cm [°C] tt -20cm [°C] tt -100cm [°C] ff [km/h] ff [kn] fx [km/h] fx [kn] dd ppp [hPa] vv [km] sd [min] rr [mm]
12.12.2018 00:00:00 -1,6 -2,7 -5,1 8,1 11,4 5 3 7 4 E 1023,3 15 0 0,0
11.12.2018 23:00:00 -1,1 -2,7 -4,7 8,2 11,4 3 2 11 6 ESE 1023,2 10 0 0,0
11.12.2018 22:00:00 -0,8 -2,1 -3,4 8,2 11,4 6 3 14 8 SE 1022,9 13 0 0,0
11.12.2018 21:00:00 0,3 -1,5 -2,8 8,2 11,4 10 6 11 6 ESE 1023,1 15 0 0,0
11.12.2018 20:00:00 1,0 -1,6 -2,3 8,2 11,4 6 4 10 5 E 1023,0 16 0 0,0
11.12.2018 19:00:00 2,0 -0,9 -1,0 8,2 11,4 6 3 11 6 ESE 1022,7 17 0 0,0
11.12.2018 18:00:00 3,4 -0,8 0,2 8,1 11,4 5 3 11 6 ESE 1022,1 13 0 0,0
11.12.2018 17:00:00 4,8 -0,2 2,7 8,1 11,4 9 5 14 7 SE 1021,8 16 21 0,0
11.12.2018 16:00:00 7,4 -0,1 9,2 8,1 11,4 5 3 11 6 SE 1021,2 60 60 0,0
11.12.2018 15:00:00 7,7 0,4 12,1 8,1 11,4 4 2 11 6 SE 1021,4 57 60 0,0
11.12.2018 14:00:00 7,7 1,3 12,9 8,1 11,4 7 4 16 9 S 1022,1 58 60 0,0
11.12.2018 13:00:00 7,0 1,1 11,8 8,2 11,4 5 3 10 5 ESE 1022,9 58 60 0,0
11.12.2018 12:00:00 3,9 2,6 5,6 8,2 11,4 3 2 7 4 NW 1024,4 19 60 0,0
11.12.2018 11:00:00 1,3 0,9 3,6 8,3 11,4 0 0 5 3 N 1025,7 17 60 0,0
11.12.2018 10:00:00 -0,8 -1,2 -2,5 8,4 11,4 0 0 8 4 N 1026,4 10 60 0,0
11.12.2018 09:00:00 -3,0 -3,3 -6,2 8,4 11,4 6 3 7 4 E 1026,9 0,6 16 0,0
11.12.2018 08:00:00 -3,0 -3,3 -5,0 8,5 11,4 6 3 8 4 ENE 1027,3 0,4 0 0,0
11.12.2018 07:00:00 -2,6 -2,9 -6,8 8,6 11,4 3 2 6 3 S 1027,7 0,2 0 0,0
11.12.2018 06:00:00 -2,8 -3,2 -6,4 8,6 11,4 0 0 6 4 N 1028,3 0,4 0 0,0
11.12.2018 05:00:00 -2,1 -2,5 -6,2 8,7 11,4 3 2 8 4 SE 1028,7 1,5 0 0,0
11.12.2018 04:00:00 -1,8 -2,2 -5,6 8,7 11,4 4 2 8 4 ESE 1029,1 6 0 0,0
11.12.2018 03:00:00 -1,4 -1,8 -5,4 8,8 11,4 4 2 6 4 E 1029,3 0,9 0 0,0
11.12.2018 02:00:00 -0,3 -0,7 -4,8 8,8 11,4 0 0 7 4 N 1029,3 14 0 0,0
11.12.2018 01:00:00 0,4 -0,2 -1,5 8,9 11,4 5 3 15 8 NE 1029,5 12 0 0,0
11.12.2018 00:00:00 1,0 0,3 -2,0 8,9 11,4 9 5 12 7 NW 1029,9 12 0 0,0
10.12.2018 23:00:00 0,7 -0,3 -2,1 8,9 11,4 6 4 8 5 WNW 1030,3 4,7 0 0,0
10.12.2018 22:00:00 2,5 1,2 0,1 8,9 11,4 6 3 11 6 NNW 1030,0 14 0 0,0
10.12.2018 21:00:00 3,1 1,5 0,3 8,9 11,4 5 3 11 6 NNW 1030,5 20 0 0,0
10.12.2018 20:00:00 3,9 2,1 0,4 9,0 11,4 6 3 12 7 N 1030,5 20 0 0,0
10.12.2018 19:00:00 3,6 2,0 1,3 9,0 11,4 5 3 14 7 NW 1030,6 20 0 0,0
10.12.2018 18:00:00 4,5 2,2 2,3 8,9 11,4 5 3 13 7 WNW 1030,4 20 0 0,0
10.12.2018 17:00:00 5,6 2,2 5,3 8,9 11,4 11 6 23 12 NNW 1030,1 20 2 0,0
10.12.2018 16:00:00 6,2 2,6 6,3 8,9 11,5 10 5 21 12 NNW 1030,0 60 5 0,0
10.12.2018 15:00:00 5,8 2,3 6,0 8,9 11,4 12 7 29 15 NNW 1030,4 60 18 0,0
10.12.2018 14:00:00 6,7 2,8 6,7 8,9 11,4 20 11 36 19 NW 1030,5 20 32 0,0
10.12.2018 13:00:00 6,6 3,2 7,3 8,9 11,4 20 11 33 18 NW 1031,1 18 44 0,0
10.12.2018 12:00:00 6,0 3,3 5,8 8,9 11,4 20 11 33 18 NW 1031,6 19 14 0,0
10.12.2018 11:00:00 5,1 3,3 5,5 9,0 11,5 14 8 24 13 NNW 1032,4 18 6 0,0
10.12.2018 10:00:00 4,9 3,4 4,6 9,0 11,4 15 8 29 16 NW 1032,1 17 3 0,0
10.12.2018 09:00:00 4,8 3,6 4,5 9,0 11,5 16 9 25 14 NW 1031,7 15 0 0,0
10.12.2018 08:00:00 4,7 3,7 4,4 9,0 11,5 16 9 29 16 NW 1031,2 15 0 0,0
10.12.2018 07:00:00 5,0 4,1 4,2 9,0 11,4 17 9 31 17 NW 1030,8 16 0 0,2
10.12.2018 06:00:00 5,1 4,2 4,7 9,1 11,4 18 10 29 15 WNW 1030,7 12 0 0,0
10.12.2018 05:00:00 5,2 4,3 4,6 9,1 11,5 17 9 29 16 WNW 1030,5 17 0 0,0
10.12.2018 04:00:00 5,3 4,6 4,8 9,1 11,5 19 11 30 16 WNW 1030,7 9 0 0,2
10.12.2018 03:00:00 5,4 4,7 5,1 9,1 11,5 18 10 29 16 WNW 1030,7 12 0 0,2
10.12.2018 02:00:00 5,6 4,7 5,0 9,1 11,5 17 9 32 17 WNW 1030,2 12 0 0,0
10.12.2018 01:00:00 5,7 4,7 5,4 9,2 11,5 19 10 36 20 WNW 1030,5 12 0 0,0
10.12.2018 00:00:00 5,9 4,7 5,1 9,2 11,5 24 13 43 23 WNW 1030,1 13 0 0,0
09.12.2018 23:00:00 5,8 4,9 5,4 9,2 11,5 25 14 46 25 WNW 1029,1 8 0 0,0
09.12.2018 22:00:00 5,9 5,0 5,2 9,2 11,5 26 14 43 23 WNW 1028,8 11 0 0,0
09.12.2018 21:00:00 5,8 4,9 5,1 9,2 11,5 27 15 42 23 WNW 1028,4 19 0 0,2
09.12.2018 20:00:00 6,0 5,1 5,2 9,2 11,5 22 12 44 24 WNW 1027,7 6 0 0,6
09.12.2018 19:00:00 6,1 5,2 5,8 9,3 11,5 21 12 48 26 NW 1027,3 2,9 0 2,2
09.12.2018 18:00:00 6,5 5,1 5,7 9,2 11,5 25 14 45 25 W 1025,6 7 0 0,2
09.12.2018 17:00:00 6,4 5,0 5,7 9,3 11,5 25 14 43 23 W 1025,3 10 2 0,6
09.12.2018 16:00:00 6,4 4,9 5,6 9,3 11,5 17 9 50 27 WNW 1025,1 20 5 1,0
09.12.2018 15:00:00 6,9 4,9 6,5 9,2 11,5 18 10 50 27 WNW 1024,2 10 0 0,0
09.12.2018 14:00:00 7,1 4,6 6,4 9,3 11,5 27 14 55 30 NW 1024,0 15 0 0,2
09.12.2018 13:00:00 7,1 5,9 6,6 9,3 11,5 29 15 56 30 WNW 1023,7 7 0 0,2
09.12.2018 12:00:00 6,6 5,2 6,3 9,3 11,5 34 19 77 42 WNW 1024,0 11 0 0,8
09.12.2018 11:00:00 7,9 6,7 7,2 9,3 11,5 31 17 59 32 W 1022,7 5 0 0,2
09.12.2018 10:00:00 7,8 6,6 7,2 9,3 11,5 27 14 61 33 W 1022,7 7 0 0,6
09.12.2018 09:00:00 7,7 6,5 7,1 9,3 11,5 24 13 45 24 WNW 1022,8 8 0 0,4
09.12.2018 08:00:00 7,6 6,1 7,0 9,2 11,5 21 11 58 31 W 1022,8 4,8 0 0,2
09.12.2018 07:00:00 8,1 6,6 7,5 9,2 11,5 23 12 51 28 W 1022,4 12 0 0,0
09.12.2018 06:00:00 8,1 7,0 7,5 9,3 11,5 14 8 53 29 W 1022,3 16 0 0,4
09.12.2018 05:00:00 8,3 7,7 8,0 9,3 11,5 16 9 30 16 W 1022,3 2,9 0 2,2
09.12.2018 04:00:00 8,4 7,5 7,9 9,3 11,5 23 12 43 23 W 1022,5 3,2 0 0,2
09.12.2018 03:00:00 8,2 7,4 7,4 9,3 11,5 21 11 43 23 WSW 1022,7 12 0 0,4
09.12.2018 02:00:00 8,1 7,5 7,5 9,3 11,5 18 10 42 23 W 1022,7 7 0 0,4
09.12.2018 01:00:00 7,6 7,2 7,4 9,3 11,5 11 6 23 12 WSW 1023,8 1,8 0 0,8
09.12.2018 00:00:00 7,5 7,1 7,2 9,3 11,5 14 8 28 15 WSW 1024,0 4,5 0 0,4
08.12.2018 23:00:00 7,2 6,8 6,9 9,3 11,5 14 8 24 13 W 1023,9 2,1 0 0,4
08.12.2018 22:00:00 7,0 6,4 6,7 9,3 11,5 15 8 24 13 W 1024,2 3,1 0 0,2
08.12.2018 21:00:00 7,0 6,3 6,7 9,3 11,5 19 11 36 20 W 1024,8 6 0 0,4
08.12.2018 20:00:00 7,2 6,5 6,8 9,3 11,5 18 10 35 19 W 1024,7 18 0 0,2
08.12.2018 19:00:00 6,9 6,3 6,7 9,3 11,5 19 11 31 17 W 1024,9 6 0 0,4
08.12.2018 18:00:00 6,8 6,2 6,7 9,3 11,5 15 8 21 11 WSW 1025,1 2,4 0 0,6
08.12.2018 17:00:00 6,8 5,9 6,6 9,3 11,5 9 5 23 13 W 1025,5 6 0 0,4
08.12.2018 16:00:00 7,0 6,3 6,8 9,3 11,5 11 6 23 12 W 1025,7 16 0 0,2
08.12.2018 15:00:00 6,9 6,2 6,8 9,3 11,5 18 10 31 17 W 1025,8 14 0 0,2
08.12.2018 14:00:00 6,9 6,0 6,7 9,3 11,5 21 11 37 20 W 1026,2 6 0 0,0
08.12.2018 13:00:00 6,6 5,7 6,5 9,4 11,5 18 10 35 19 WNW 1026,6 5 0 0,2
08.12.2018 12:00:00 6,4 5,5 6,2 9,4 11,5 20 11 35 19 WNW 1027,0 8 1 0,0
08.12.2018 11:00:00 5,9 5,2 5,6 9,4 11,5 18 10 30 16 WNW 1027,5 14 0 0,2
08.12.2018 10:00:00 5,3 4,7 4,9 9,4 11,5 13 7 22 12 W 1027,3 9 0 0,2
08.12.2018 09:00:00 4,9 4,3 4,5 9,5 11,5 14 7 30 16 WNW 1027,2 13 0 0,0
08.12.2018 08:00:00 4,6 4,0 4,3 9,5 11,5 10 6 29 16 W 1026,9 14 0 0,0
08.12.2018 07:00:00 4,6 4,0 4,4 9,5 11,5 16 9 25 14 WNW 1026,6 12 0 0,2
08.12.2018 06:00:00 4,5 3,8 4,3 9,6 11,5 13 7 24 13 W 1026,1 16 0 0,4
08.12.2018 05:00:00 4,4 3,5 4,1 9,6 11,5 15 8 22 12 WNW 1026,0 7 0 0,2
08.12.2018 04:00:00 4,6 3,4 4,3 9,6 11,5 18 10 27 15 WNW 1026,3 16 0 0,0
08.12.2018 03:00:00 4,7 3,7 4,3 9,6 11,5 19 11 30 16 WNW 1025,6 16 0 0,0
08.12.2018 02:00:00 4,9 4,0 4,4 9,7 11,5 18 10 39 21 WNW 1025,3 12 0 0,0
08.12.2018 01:00:00 4,9 4,0 4,1 9,7 11,5 16 9 31 17 WNW 1025,4 10 0 0,0
08.12.2018 00:00:00 5,1 3,8 4,2 9,7 11,5 22 12 34 18 WNW 1025,3 16 0 0,0
07.12.2018 23:00:00 5,7 4,3 4,9 9,8 11,5 20 11 34 18 WNW 1025,0 15 0 0,0
07.12.2018 22:00:00 5,8 4,4 5,3 9,7 11,5 14 8 26 14 WNW 1024,7 15 0 0,0
07.12.2018 21:00:00 5,9 4,5 4,8 9,7 11,5 16 9 26 14 WNW 1024,1 17 0 0,0
07.12.2018 20:00:00 5,8 3,8 4,3 9,7 11,5 21 11 79 43 WNW 1023,4 60 0 1,0
07.12.2018 19:00:00 7,8 6,9 7,1 9,7 11,5 17 9 37 20 W 1021,1 57 0 1,2
07.12.2018 18:00:00 7,4 6,8 7,0 9,7 11,5 22 12 34 18 WSW 1021,0 2,5 0 0,4
07.12.2018 17:00:00 7,3 6,6 7,1 9,7 11,5 18 10 31 17 SW 1020,7 3,8 0 0,6
07.12.2018 16:00:00 7,5 6,6 7,4 9,7 11,5 14 8 26 14 SSW 1020,5 5 0 0,0
07.12.2018 15:00:00 7,8 6,3 7,6 9,7 11,5 16 9 26 14 SW 1021,2 8 0 0,0
07.12.2018 14:00:00 8,2 6,8 7,8 9,7 11,5 15 8 24 13 WSW 1021,8 38 0 0,0
07.12.2018 13:00:00 7,9 6,8 7,8 9,8 11,5 11 6 19 11 SW 1022,7 20 0 0,0
07.12.2018 12:00:00 7,8 7,0 7,6 9,8 11,5 8 5 21 12 WSW 1023,8 16 0 0,2
07.12.2018 11:00:00 7,6 7,0 7,8 9,8 11,5 12 6 17 9 WSW 1025,0 6 0 0,0
07.12.2018 10:00:00 7,8 7,4 7,4 9,8 11,5 8 4 16 8 WSW 1024,7 56 0 0,0
07.12.2018 09:00:00 7,3 7,0 7,0 9,8 11,5 5 3 9 5 WSW 1025,0 20 0 0,2
07.12.2018 08:00:00 7,0 6,6 6,3 9,8 11,5 4 2 6 4 SE 1024,7 2,3 0 0,0
07.12.2018 07:00:00 7,0 6,6 6,8 9,8 11,5 0 0 11 6 N 1025,1 56 0 0,2
07.12.2018 06:00:00 7,3 6,9 6,0 9,8 11,5 3 2 6 4 SW 1025,4 5 0 0,0
07.12.2018 05:00:00 7,4 7,1 7,1 9,8 11,5 6 3 10 5 W 1025,8 17 0 0,2
07.12.2018 04:00:00 7,5 7,2 7,5 9,8 11,5 7 4 18 10 W 1026,3 4,1 0 0,2
07.12.2018 03:00:00 7,6 7,3 6,9 9,8 11,5 6 3 8 4 W 1026,5 7 0 0,0
07.12.2018 02:00:00 7,8 7,4 7,5 9,8 11,5 8 4 11 6 WNW 1026,6 13 0 0,0
07.12.2018 01:00:00 8,0 7,7 7,9 9,8 11,5 8 4 19 10 W 1027,5 5 0 0,0
07.12.2018 00:00:00 8,5 8,2 8,4 9,8 11,5 9 5 18 10 WNW 1027,8 5 0 0,2
06.12.2018 23:00:00 8,6 8,2 8,6 9,8 11,5 9 5 24 13 WNW 1027,8 6 0 0,0
06.12.2018 22:00:00 9,0 8,5 8,9 9,7 11,5 10 6 18 10 WNW 1027,8 4,4 0 0,0
06.12.2018 21:00:00 9,1 8,6 8,9 9,7 11,5 12 6 20 11 W 1027,9 7 0 0,0
06.12.2018 20:00:00 9,2 8,7 9,0 9,7 11,5 13 7 19 11 WNW 1028,0 9 0 0,2
06.12.2018 19:00:00 9,1 8,5 9,0 9,7 11,5 9 5 30 16 WNW 1027,8 3,8 0 0,2
06.12.2018 18:00:00 9,4 8,8 9,4 9,7 11,5 14 8 26 14 WNW 1027,2 5 0 0,4
06.12.2018 17:00:00 9,6 9,0 9,6 9,6 11,5 12 6 25 13 WNW 1026,5 50 0 0,4
06.12.2018 16:00:00 10,1 9,3 10,1 9,6 11,5 15 8 29 16 WNW 1026,2 19 0 0,2
06.12.2018 15:00:00 10,1 9,2 10,1 9,6 11,5 19 10 30 16 WNW 1025,9 3,8 3 0,0
06.12.2018 14:00:00 10,2 9,6 10,4 9,6 11,5 18 10 29 16 WNW 1026,0 42 0 0,4
06.12.2018 13:00:00 - - - - - - - - - - - - - -
06.12.2018 12:00:00 10,2 9,4 10,1 9,5 11,5 16 9 25 13 WNW 1026,2 7 0 0,0
06.12.2018 11:00:00 9,8 9,2 9,7 9,5 11,5 16 8 34 18 WNW 1026,5 15 0 0,0
06.12.2018 10:00:00 9,6 9,0 9,2 9,5 11,5 16 9 27 15 W 1026,0 11 0 0,0
06.12.2018 09:00:00 9,2 8,6 8,9 9,5 11,5 16 9 29 16 W 1025,6 15 0 0,0
06.12.2018 08:00:00 9,0 8,4 8,9 9,5 11,5 17 9 32 17 W 1024,7 11 0 0,0
06.12.2018 07:00:00 9,2 8,6 8,8 9,5 11,5 23 12 35 19 W 1024,5 12 0 0,2
06.12.2018 06:00:00 9,0 8,1 8,7 9,5 11,5 16 9 29 16 W 1024,3 6 0 0,0
06.12.2018 05:00:00 9,3 7,9 8,7 9,5 11,5 18 10 32 17 W 1024,1 38 0 0,0
06.12.2018 04:00:00 9,5 8,1 8,6 9,5 11,5 18 10 31 17 W 1023,8 35 0 0,0
06.12.2018 03:00:00 9,3 8,4 8,8 9,5 11,5 19 11 32 18 W 1024,2 8 0 0,4
06.12.2018 02:00:00 9,3 8,4 8,2 9,5 11,5 16 8 33 18 WNW 1024,4 15 0 0,0
06.12.2018 01:00:00 9,4 8,6 8,9 9,5 11,5 21 11 32 17 WNW 1025,0 20 0 1,2
06.12.2018 00:00:00 9,2 8,3 9,0 9,5 11,5 10 6 16 9 W 1025,1 3,1 0 0,8

tt = temperature
td = dewpoint
tt 5cm = temperature 5cm
tt -20cm = temperature -20cm
tt -100cm = temperature -100cm
ff = wind speed
fx = gusts
dd = wind direction
ppp = reduced air pressure
vv = visibility
sd = sunshine duration
rr = precipitation

Next stations